N8ASV Weather Reports


time (UTC)temp
C
wind
direction
speed
KPH
gust
KPH
rain 1hr
cm
rain 24hr
cm
rain mn
cm
humidity
%
barometer
mb
20260503184516 17 203 8.0 29.0 0.00 0.00 0.00 42 1014.8
20260503183517 16 248 4.8 9.7 0.00 0.00 0.00 45 1015.0
20260503182517 16 225 3.2 11.3 0.00 0.00 0.00 41 1015.2
20260503181557 16 225 4.8 9.7 0.00 0.00 0.00 39 1015.1
20260503180517 16 248 4.8 8.0 0.00 0.00 0.00 39 1015.4
20260503175517 16 203 6.4 19.3 0.00 0.00 0.00 40 1015.2
20260503174516 16 180 4.8 9.7 0.00 0.00 0.00 40 1015.3
20260503173516 16 248 6.4 17.7 0.00 0.00 0.00 37 1015.6
20260503172516 16 225 6.4 14.5 0.00 0.00 0.00 38 1015.8
20260503171516 16 203 6.4 14.5 0.00 0.00 0.00 37 1015.9
20260503170516 16 248 4.8 9.7 0.00 0.00 0.00 42 1016.2
20260503150516 13 225 4.8 8.0 0.00 0.00 0.00 48 1017.7
20260503130517 7 158 4.8 8.0 0.00 0.00 0.00 73 1018.0
20260503110537 0 0.0 0.0 0.00 0.00 0.00 92 1017.4
20260503081516 0 0.0 0.0 0.00 0.00 0.00 90 1016.8
20260503080516 0 0.0 0.0 0.00 0.00 0.00 91 1016.8
20260503072516 0 0.0 0.0 0.00 0.00 0.00 90 1016.8
20260503071516 0 0.0 0.0 0.00 0.00 0.00 90 1016.8
20260503070516 0 0.0 0.0 0.00 0.00 0.00 89 1016.8
20260503054516 0 0.0 0.0 0.00 0.00 0.00 89 1017.3
20260503053516 0 0.0 0.0 0.00 0.00 0.00 89 1017.2
20260503052516 0 0.0 0.0 0.00 0.00 0.00 88 1017.1
20260503051516 0 0.0 0.0 0.00 0.00 0.00 88 1017.1
20260503050556 1 0.0 0.0 0.00 0.00 0.00 88 1017.2
20260503045515 1 0.0 0.0 0.00 0.00 0.00 88 1017.1
20260503044515 1 0.0 0.0 0.00 0.00 0.00 88 1017.0
20260503043515 1 0.0 0.0 0.00 0.00 0.00 87 1017.0
20260503042536 1 0.0 0.0 0.00 0.00 0.00 86 1017.0
20260503041515 1 0.0 0.0 0.00 0.00 0.00 86 1017.1
20260503040538 1 0.0 0.0 0.00 0.00 0.00 87 1017.0
20260503035517 1 0.0 0.0 0.00 0.00 0.00 85 1017.1
20260503034517 2 0.0 0.0 0.00 0.00 0.00 86 1017.1
20260503033517 2 0.0 0.0 0.00 0.00 0.00 85 1017.2
20260503032537 2 0.0 0.0 0.00 0.00 0.00 84 1017.2
20260503031537 2 0.0 0.0 0.00 0.00 0.00 84 1017.2
20260503030537 2 0.0 0.0 0.00 0.00 0.00 83 1017.2
20260503025557 2 0.0 0.0 0.00 0.00 0.00 83 1017.2
20260503024517 3 0.0 0.0 0.00 0.00 0.00 82 1017.1
20260503023517 3 0.0 0.0 0.00 0.00 0.00 81 1017.0
20260503022537 3 0.0 0.0 0.00 0.00 0.00 80 1017.0
20260503021517 3 0.0 0.0 0.00 0.00 0.00 80 1016.8
20260503020537 3 0.0 0.0 0.00 0.00 0.00 78 1016.7
20260503015517 4 0.0 0.0 0.00 0.00 0.00 76 1016.8
20260503014517 4 0.0 0.0 0.00 0.00 0.00 75 1016.7
20260503013517 5 0.0 0.0 0.00 0.00 0.00 74 1016.6
20260503012517 5 0.0 0.0 0.00 0.00 0.00 73 1016.6
20260503011517 6 0.0 0.0 0.00 0.00 0.00 72 1016.4
20260503010516 6 0.0 0.0 0.00 0.00 0.00 69 1016.3
20260503005517 7 0.0 0.0 0.00 0.00 0.00 65 1016.2
20260503004517 8 0.0 0.0 0.00 0.00 0.00 62 1016.1
20260503003516 8 0.0 1.6 0.00 0.00 0.00 57 1016.1
20260503002516 8 0 3.2 8.0 0.00 0.00 0.00 53 1015.9
20260503001516 9 338 3.2 8.0 0.00 0.00 0.00 53 1015.7
20260503000516 9 338 3.2 11.3 0.00 0.00 0.00 50 1015.7
20260502235516 10 338 3.2 6.4 0.00 0.00 0.00 48 1015.7
20260502234516 10 0 4.8 11.3 0.00 0.00 0.00 49 1015.6
20260502233516 10 315 1.6 6.4 0.00 0.00 0.00 51 1015.6
20260502232516 10 315 3.2 11.3 0.00 0.00 0.00 47 1015.6
20260502231516 10 315 4.8 9.7 0.00 0.00 0.00 46 1015.6
20260502230516 10 315 4.8 9.7 0.00 0.00 0.00 46 1015.4
20260502225516 11 338 4.8 9.7 0.00 0.00 0.00 46 1015.4
20260502224516 11 338 4.8 11.3 0.00 0.00 0.00 46 1015.4
20260502223516 11 315 3.2 11.3 0.00 0.00 0.00 46 1015.3
20260502222516 11 270 1.6 8.0 0.00 0.00 0.00 45 1015.3
20260502221536 11 315 3.2 9.7 0.00 0.00 0.00 43 1015.4
20260502220516 11 315 4.8 11.3 0.00 0.00 0.00 44 1015.3
20260502215516 11 0 8.0 19.3 0.00 0.00 0.00 42 1015.2
20260502214516 11 315 4.8 8.0 0.00 0.00 0.00 44 1015.2
20260502213516 11 293 3.2 9.7 0.00 0.00 0.00 47 1015.1
20260502212536 11 293 3.2 8.0 0.00 0.00 0.00 42 1015.1
20260502211516 11 315 4.8 9.7 0.00 0.00 0.00 47 1015.0
20260502210516 11 338 4.8 16.1 0.00 0.00 0.00 46 1015.0
20260502205516 12 270 3.2 6.4 0.00 0.00 0.00 46 1014.9
20260502204516 12 315 4.8 16.1 0.00 0.00 0.00 44 1015.0
20260502203515 12 0 4.8 17.7 0.00 0.00 0.00 44 1015.1
20260502202516 12 0 6.4 20.9 0.00 0.00 0.00 42 1015.0
20260502201516 12 338 4.8 9.7 0.00 0.00 0.00 43 1015.2
20260502200557 12 293 4.8 17.7 0.00 0.00 0.00 43 1015.3
20260502195517 11 0 3.2 14.5 0.00 0.00 0.00 45 1015.2
20260502194517 12 293 4.8 11.3 0.00 0.00 0.00 39 1015.4
20260502193517 12 0 8.0 16.1 0.00 0.00 0.00 42 1015.3
20260502192537 12 293 4.8 9.7 0.00 0.00 0.00 45 1015.3
20260502191537 12 315 4.8 8.0 0.00 0.00 0.00 44 1015.5
20260502190517 12 338 6.4 22.5 0.00 0.00 0.00 43 1015.5
20260502185537 12 0 6.4 16.1 0.00 0.00 0.00 40 1015.8